Miscellaneous Local Product
Issued by NWS Hastings, NE

Home | Current Version | Previous Version | Graphics & Text | Print | Product List | Glossary On
Versions: 1 2 3 4 5 6 7 8 9 10 11 12 13 14 15 16 17 18 19 20 21 22 23 24 25 26 27 28 29 30 31 32 33 34 35 36 37 38 39 40 41 42 43 44 45 46 47 48 49 50
000
AXUS43 KGID 280702
MISGRI

GID CWA HOURLY WEATHER ROUNDUP
NATIONAL WEATHER SERVICE HASTINGS NE
200 AM CDT WED JUN 28 2017

NOTE: "FAIR" INDICATES FEW OR NO CLOUDS BELOW 12,000 FEET WITH NO
SIGNIFICANT WEATHER AND/OR OBSTRUCTIONS TO VISIBILITY.

...SOUTH CENTRAL NEBRASKA...

CITY           SKY/WX    TMP DP  RH WIND       PRES   REMARKS
GRAND ISLAND   TSTM      65  65 100 NW12G23   29.82R FOG
HASTINGS       CLOUDY    68  63  84 NW15      29.80R
KEARNEY        CLOUDY    70  63  78 N14       29.78F
ORD            CLOUDY    65  60  84 SW14      29.75R
YORK           CLOUDY    66  63  88 E10       29.75F
AURORA         RAIN      66  65  97 NW9       29.78R
LEXINGTON      CLOUDY    67  62  85 W5        29.78S
HOLDREGE       CLOUDY    65  62  89 NE6       29.74F
HEBRON         RAIN      78  67  68 SW7       29.74R

...NEBRASKA PANHANDLE...

CITY           SKY/WX    TMP DP  RH WIND       PRES   REMARKS
CHADRON        CLEAR     61  51  70 W9        29.76S
ALLIANCE       CLEAR     54  51  90 W10       29.79S
SCOTTSBLUFF    CLEAR     58  50  75 W6        29.84R
SIDNEY         PTCLDY    53  50  89 W7        29.88R

...WESTERN AND NORTH CENTRAL NEBRASKA...

CITY           SKY/WX    TMP DP  RH WIND       PRES   REMARKS
VALENTINE      CLOUDY    66  53  63 W10       29.64
AINSWORTH      MOCLDY    62  58  88 S8G20     29.59F
ONEILL         DRIZZLE   66  61  84 S7        29.63F
BROKEN BOW     CLOUDY    63  59  87 E5        29.74R
IMPERIAL       PTCLDY    67  56  67 S9        29.77F
NORTH PLATTE   LGT RAIN  64  60  87 SE10      29.74F
MCCOOK         CLOUDY    68  62  81 N6        29.78R

...EASTERN NEBRASKA...

CITY           SKY/WX    TMP DP  RH WIND       PRES   REMARKS
NORFOLK        LGT RAIN  66  61  84 W21G26    29.72R
SO SIOUX CITY  LGT RAIN  72  68  87 S7G20     29.67R
TEKAMAH        LGT RAIN  69  64  84 S15G23    29.71F
COLUMBUS       LGT RAIN  66  64  93 W6        29.74R
ALBION         LGT RAIN  68  62  80 NW7       29.75R
OMAHA EPPLEY   TSTM      75  66  73 S16G25    29.77R
OFFUTT AFB     TSTM      73  66  79 SW12G21   29.81R
MILLARD        LGT RAIN  71  66  83 CALM      29.78R
LINCOLN        TSTM      67  64  90 W16G35    29.83F VSB 1
NEBRASKA CITY  CLOUDY    74  67  80 S17G26    29.75F
BEATRICE       CLOUDY    77  65  66 S15G25    29.73S THUNDER
FALLS CITY     CLOUDY    75  64  68 S16G29    29.76F

...NORTHERN KANSAS...

CITY           SKY/WX    TMP DP  RH WIND       PRES   REMARKS
GOODLAND       CLOUDY    69  59  70 VRB6      29.80R
HILL CITY      LGT RAIN  75  60  59 SE13G41   29.73F
NORTON         MOSUNNY   75  55  50 S14G23    29.71
PHILLIPSBURG   CLOUDY    75  63  64 S21G26    29.77F
SMITH CENTER   LGT RAIN  75  63  64 SW15G22   29.80S
HAYS           TSTM      75  66  73 SW12G22   29.85R
RUSSELL        TSTM      80  63  55 W20G28    29.82R
CONCORDIA      CLOUDY    79  65  62 S26G36    29.74S
SALINA         CLOUDY    80  65  59 S20G30    29.77F
TOPEKA         CLOUDY    76  66  71 S12       29.83F



USA.gov is the U.S. government's official web portal to all federal, state and local government web resources and services.